When you browse on this site, cookies collect data to enhance your experience and personalize the content and advertising you see.
Visit our Privacy Policy to learn more. By continuing to use the site, you agree to this use of cookies and data.
  • In Austria
  • List of Countries
  • For 7 days
  • Water Temperature
  • Weather Map
  • News
  • Weather Widgets
  • user-avatar
    Login

    Hourly Weather Streamwood

    Today, 18 August, Sunday

    Time Temperature Precipitation Wind Pressure Humidity
    00:00 +23°C° 0 mm 2 mps 736 mmHg 92%
    01:00 +21°C° 0 mm 2 mps 736 mmHg 93%
    02:00 +21°C° 0 mm 2 mps 736 mmHg 94%
    03:00 +21°C° 0 mm 2 mps 735 mmHg 94%
    04:00 +21°C° 0.2 mm 2 mps 736 mmHg 95%
    05:00 +23°C° 0.2 mm 2 mps 736 mmHg 95%
    06:00 +23°C° 0.2 mm 2 mps 736 mmHg 95%
    07:00 +24°C° 0.2 mm 3 mps 736 mmHg 92%
    08:00 +25°C° 0.2 mm 3 mps 736 mmHg 88%
    09:00 +26°C° 0.2 mm 3 mps 735 mmHg 85%
    10:00 +27°C° 0 mm 5 mps 735 mmHg 82%
    11:00 +28°C° 0 mm 6 mps 736 mmHg 79%
    12:00 +29°C° 0 mm 7 mps 736 mmHg 76%
    13:00 +29°C° 0.1 mm 6 mps 735 mmHg 76%
    14:00 +29°C° 0.1 mm 6 mps 735 mmHg 76%
    15:00 +29°C° 0.1 mm 5 mps 735 mmHg 76%
    16:00 +28°C° 0.2 mm 5 mps 735 mmHg 78%
    17:00 +28°C° 0.2 mm 5 mps 735 mmHg 80%
    18:00 +27°C° 0.2 mm 4 mps 735 mmHg 83%
    19:00 +26°C° 0 mm 4 mps 735 mmHg 84%
    20:00 +26°C° 0 mm 4 mps 736 mmHg 86%
    21:00 +25°C° 0 mm 4 mps 736 mmHg 87%
    22:00 +25°C° 0 mm 3 mps 736 mmHg 88%
    23:00 +24°C° 0 mm 3 mps 736 mmHg 90%

    Tomorrow, 19 August, Monday

    Time Temperature Precipitation Wind Pressure Humidity
    00:00 +24°C° 0 mm 3 mps 737 mmHg 91%
    01:00 +23°C° 0.3 mm 2 mps 737 mmHg 91%
    02:00 +23°C° 0.3 mm 2 mps 737 mmHg 91%
    03:00 +23°C° 0.3 mm 2 mps 737 mmHg 92%
    04:00 +21°C° 0 mm 2 mps 738 mmHg 91%
    05:00 +21°C° 0 mm 2 mps 738 mmHg 90%
    06:00 +21°C° 0 mm 2 mps 739 mmHg 90%
    07:00 +23°C° 0 mm 2 mps 739 mmHg 84%
    08:00 +24°C° 0 mm 2 mps 740 mmHg 79%
    09:00 +26°C° 0 mm 2 mps 740 mmHg 74%
    10:00 +27°C° 0 mm 2 mps 740 mmHg 68%
    11:00 +28°C° 0 mm 2 mps 740 mmHg 63%
    12:00 +29°C° 0 mm 1 mps 740 mmHg 58%
    13:00 +29°C° 0 mm 2 mps 740 mmHg 58%
    14:00 +29°C° 0 mm 2 mps 740 mmHg 58%
    15:00 +29°C° 0 mm 2 mps 740 mmHg 58%
    16:00 +28°C° 0 mm 2 mps 740 mmHg 62%
    17:00 +27°C° 0 mm 2 mps 740 mmHg 65%
    18:00 +26°C° 0 mm 2 mps 740 mmHg 69%
    19:00 +25°C° 0 mm 2 mps 740 mmHg 68%
    20:00 +24°C° 0 mm 2 mps 740 mmHg 67%
    21:00 +23°C° 0 mm 2 mps 741 mmHg 66%
    22:00 +23°C° 0 mm 2 mps 741 mmHg 68%
    23:00 +21°C° 0 mm 2 mps 741 mmHg 69%

    Day after tomorrow, 20 August, Tuesday

    Time Temperature Precipitation Wind Pressure Humidity
    00:00 +21°C° 0 mm 2 mps 740 mmHg 71%
    01:00 +22°C° 0 mm 1 mps 740 mmHg 73%
    02:00 +22°C° 0 mm 1 mps 740 mmHg 76%
    03:00 +22°C° 0 mm 1 mps 740 mmHg 78%
    04:00 +22°C° 0 mm 1 mps 740 mmHg 79%
    05:00 +22°C° 0 mm 1 mps 740 mmHg 81%
    06:00 +22°C° 0 mm 1 mps 740 mmHg 82%
    07:00 +24°C° 0 mm 2 mps 740 mmHg 81%
    08:00 +26°C° 0 mm 2 mps 741 mmHg 79%
    09:00 +28°C° 0 mm 2 mps 741 mmHg 78%
    10:00 +29°C° 0 mm 3 mps 740 mmHg 75%
    11:00 +30°C° 0 mm 3 mps 740 mmHg 73%
    12:00 +31°C° 0 mm 3 mps 739 mmHg 71%
    13:00 +31°C° 0.1 mm 3 mps 739 mmHg 71%
    14:00 +33°C° 0.1 mm 3 mps 739 mmHg 71%
    15:00 +33°C° 0.1 mm 3 mps 738 mmHg 71%
    16:00 +33°C° 0 mm 3 mps 738 mmHg 75%
    17:00 +31°C° 0 mm 2 mps 738 mmHg 78%
    18:00 +31°C° 0 mm 2 mps 738 mmHg 81%
    19:00 +30°C° 0 mm 2 mps 738 mmHg 84%
    20:00 +29°C° 0 mm 2 mps 739 mmHg 86%
    21:00 +28°C° 0 mm 2 mps 739 mmHg 89%
    22:00 +28°C° 0 mm 2 mps 739 mmHg 90%
    23:00 +27°C° 0 mm 2 mps 739 mmHg 91%

    21 August, Wednesday

    Time Temperature Precipitation Wind Pressure Humidity
    00:00 +27°C° 0 mm 2 mps 739 mmHg 92%
    01:00 +27°C° 0.1 mm 2 mps 739 mmHg 92%
    02:00 +26°C° 0.1 mm 2 mps 739 mmHg 92%
    03:00 +26°C° 0.1 mm 2 mps 739 mmHg 91%
    04:00 +25°C° 0 mm 2 mps 739 mmHg 92%
    05:00 +25°C° 0 mm 3 mps 739 mmHg 92%
    06:00 +24°C° 0 mm 3 mps 740 mmHg 92%
    07:00 +25°C° 0 mm 2 mps 740 mmHg 90%
    08:00 +25°C° 0 mm 2 mps 740 mmHg 87%
    09:00 +25°C° 0 mm 2 mps 741 mmHg 84%
    10:00 +26°C° 0 mm 2 mps 741 mmHg 81%
    11:00 +26°C° 0 mm 2 mps 741 mmHg 78%
    12:00 +27°C° 0 mm 3 mps 741 mmHg 75%
    13:00 +27°C° 0 mm 3 mps 741 mmHg 74%
    14:00 +27°C° 0 mm 3 mps 741 mmHg 72%
    15:00 +27°C° 0 mm 2 mps 740 mmHg 71%
    16:00 +27°C° 0 mm 2 mps 740 mmHg 72%
    17:00 +26°C° 0 mm 3 mps 740 mmHg 73%
    18:00 +25°C° 0 mm 3 mps 740 mmHg 75%
    19:00 +24°C° 0 mm 3 mps 740 mmHg 77%
    20:00 +22°C° 0 mm 3 mps 741 mmHg 78%
    21:00 +20°C° 0 mm 3 mps 741 mmHg 80%
    22:00 +19°C° 0 mm 3 mps 741 mmHg 77%
    23:00 +18°C° 0 mm 3 mps 741 mmHg 74%

    22 August, Thursday

    Time Temperature Precipitation Wind Pressure Humidity
    00:00 +17°C° 0 mm 3 mps 741 mmHg 71%
    01:00 +17°C° 0 mm 3 mps 741 mmHg 72%
    02:00 +16°C° 0 mm 3 mps 741 mmHg 72%
    03:00 +14°C° 0 mm 3 mps 741 mmHg 73%
    04:00 +14°C° 0 mm 3 mps 741 mmHg 74%
    05:00 +14°C° 0 mm 3 mps 741 mmHg 76%
    06:00 +15°C° 0 mm 2 mps 742 mmHg 77%
    07:00 +17°C° 0 mm 2 mps 742 mmHg 73%
    08:00 +19°C° 0 mm 2 mps 742 mmHg 69%
    09:00 +21°C° 0 mm 2 mps 742 mmHg 65%
    10:00 +22°C° 0 mm 3 mps 743 mmHg 62%
    11:00 +24°C° 0 mm 3 mps 743 mmHg 59%
    12:00 +25°C° 0 mm 3 mps 743 mmHg 56%
    13:00 +25°C° 0 mm 3 mps 742 mmHg 57%
    14:00 +25°C° 0 mm 3 mps 742 mmHg 58%
    15:00 +25°C° 0 mm 3 mps 742 mmHg 60%
    16:00 +24°C° 0 mm 3 mps 742 mmHg 64%
    17:00 +21°C° 0 mm 3 mps 742 mmHg 68%
    18:00 +20°C° 0 mm 3 mps 741 mmHg 72%
    19:00 +19°C° 0 mm 3 mps 742 mmHg 72%
    20:00 +18°C° 0 mm 2 mps 742 mmHg 72%
    21:00 +17°C° 0 mm 2 mps 742 mmHg 72%
    22:00 +17°C° 0 mm 2 mps 742 mmHg 72%
    23:00 +16°C° 0 mm 2 mps 742 mmHg 72%

    23 August, Friday

    Time Temperature Precipitation Wind Pressure Humidity
    00:00 +16°C° 0 mm 2 mps 742 mmHg 72%
    01:00 +16°C° 0 mm 2 mps 742 mmHg 72%
    02:00 +16°C° 0 mm 1 mps 742 mmHg 72%
    03:00 +15°C° 0 mm 1 mps 742 mmHg 72%
    04:00 +15°C° 0 mm 1 mps 743 mmHg 72%
    05:00 +15°C° 0 mm 1 mps 743 mmHg 72%
    06:00 +15°C° 0 mm 1 mps 743 mmHg 72%
    07:00 +18°C° 0 mm 1 mps 743 mmHg 68%
    08:00 +20°C° 0 mm 1 mps 743 mmHg 64%
    09:00 +22°C° 0 mm 1 mps 743 mmHg 60%
    10:00 +23°C° 0 mm 1 mps 743 mmHg 57%
    11:00 +24°C° 0 mm 1 mps 743 mmHg 54%
    12:00 +26°C° 0 mm 1 mps 743 mmHg 51%
    13:00 +26°C° 0 mm 1 mps 743 mmHg 51%
    14:00 +26°C° 0 mm 1 mps 742 mmHg 52%
    15:00 +26°C° 0 mm 1 mps 742 mmHg 53%
    16:00 +25°C° 0 mm 1 mps 742 mmHg 57%
    17:00 +24°C° 0 mm 1 mps 742 mmHg 61%
    18:00 +23°C° 0 mm 1 mps 742 mmHg 65%
    19:00 +22°C° 0 mm 1 mps 742 mmHg 67%
    20:00 +21°C° 0 mm 1 mps 742 mmHg 70%
    21:00 +20°C° 0 mm 1 mps 742 mmHg 72%
    22:00 +20°C° 0 mm 1 mps 742 mmHg 74%
    23:00 +20°C° 0 mm 1 mps 742 mmHg 76%
    Show more